EW0561 Weather Reports


Display with metric or nautical units.
time (UTC)temp
F
wind
direction
speed
MPH
gust
MPH
rain 1hr
in
rain 24hr
in
rain mn
in
humidity
%
barometer
mb
20210803131517 77 235 0.0 0.0 0.00 1.81 0.00 96 1014.0
20210803130017 76 235 0.0 0.0 0.00 1.81 0.00 96 1013.9
20210803124535 76 235 0.0 0.0 0.00 1.81 0.00 96 1013.9
20210803123009 76 235 0.0 0.0 0.00 1.81 0.00 96 1013.7
20210803121506 75 235 0.0 0.0 0.00 1.81 0.00 96 1013.7
20210803120128 75 235 0.0 0.0 0.00 1.81 0.00 96 1013.6
20210803114744 75 235 0.0 0.0 0.00 1.82 0.00 96 1013.6
20210803113142 75 235 0.0 0.0 0.00 1.82 0.00 96 1013.4
20210803111834 75 235 0.0 0.0 0.00 1.82 0.00 96 1013.3
20210803110300 75 235 0.0 0.0 0.00 1.82 0.00 96 1013.1
20210803104726 75 235 0.0 0.0 0.00 1.82 0.00 96 1012.9
20210803103119 75 235 0.0 0.0 0.00 1.82 0.00 96 1013.0
20210803101720 75 235 0.0 0.0 0.00 1.82 0.00 96 1013.2
20210803100119 75 235 0.0 0.0 0.00 1.82 0.00 96 1013.1
20210803094728 75 235 0.0 0.0 0.00 1.82 0.00 96 1013.1
20210803093251 75 235 0.0 0.0 0.00 1.82 0.00 96 1013.1
20210803091600 75 235 0.0 0.0 0.00 1.82 0.00 96 1013.2
20210803090106 75 235 0.0 0.0 0.00 1.82 0.00 96 1013.2
20210803084620 75 235 0.0 0.0 0.00 1.82 0.00 96 1013.1
20210803083138 76 235 0.0 0.0 0.00 1.82 0.00 96 1013.0
20210803081708 75 235 0.0 0.0 0.00 1.82 0.00 96 1013.2
20210803080210 75 235 0.0 0.0 0.00 1.82 0.00 96 1013.2
20210803074721 75 235 0.0 0.0 0.00 1.82 0.00 96 1013.3
20210803073132 75 235 0.0 0.0 0.00 1.82 0.00 96 1013.3
20210803071613 75 235 0.0 0.0 0.00 1.82 0.00 96 1013.5
20210803070123 75 235 0.0 0.0 0.00 1.82 0.00 96 1013.7
20210803064544 75 235 0.0 0.0 0.00 1.82 0.00 96 1013.9
20210803063144 75 235 0.0 0.0 0.00 1.82 0.00 96 1013.9
20210803061637 75 235 0.0 0.0 0.00 1.82 0.00 96 1014.0
20210803060043 75 235 0.0 0.0 0.00 1.82 0.00 96 1013.9
20210803054712 76 235 0.0 0.0 0.00 1.82 0.00 96 1013.9
20210803053048 76 235 0.0 0.0 0.00 1.82 0.00 96 1013.9
20210803051625 76 235 0.0 0.0 0.00 1.82 0.00 96 1013.8
20210803050209 76 235 0.0 0.0 0.00 1.82 0.00 95 1014.2
20210803044604 76 235 0.0 0.0 0.00 1.82 1.82 95 1014.2
20210803043053 76 235 0.0 0.0 0.00 1.82 1.82 96 1014.1
20210803041620 76 235 0.0 0.0 0.00 1.82 1.82 95 1014.2
20210803040035 76 235 0.0 0.0 0.00 1.82 1.82 95 1014.2
20210803034543 76 235 0.0 0.0 0.00 1.83 1.82 95 1014.4
20210803033124 76 235 0.0 0.0 0.00 1.83 1.82 95 1014.4
20210803031608 76 235 0.0 0.0 0.00 1.83 1.82 95 1014.4
20210803030046 77 235 0.0 0.0 0.00 1.83 1.82 95 1014.3
20210803024603 77 235 0.0 0.0 0.00 1.83 1.82 95 1014.4
20210803023108 77 235 0.0 0.0 0.00 1.83 1.82 95 1014.3
20210803021559 77 235 0.0 0.0 0.00 1.83 1.82 95 1014.2
20210803020137 77 235 0.0 0.0 0.00 1.83 1.82 95 1013.9
20210803014559 77 235 0.0 0.0 0.00 1.84 1.82 95 1013.5
20210803013053 77 235 0.0 0.0 0.00 1.84 1.82 95 1013.5
20210803011603 78 235 0.0 0.0 0.00 1.84 1.82 95 1013.5
20210803010150 78 235 0.0 0.0 0.00 1.84 1.82 95 1013.6
20210803004524 78 235 0.0 0.0 0.00 1.85 1.82 94 1013.6
20210803003209 78 235 0.0 0.0 0.00 1.85 1.82 95 1013.5
20210803001549 78 235 0.0 0.0 0.00 1.85 1.82 94 1013.4
20210803000029 78 235 0.0 0.0 0.00 1.85 1.82 94 1013.3
20210802234618 78 235 0.0 0.0 0.00 2.19 1.82 94 1013.3
20210802233041 78 235 0.0 0.0 0.00 2.19 1.82 94 1013.1
20210802231612 78 235 0.0 0.0 0.00 2.19 1.82 94 1013.1
20210802230020 79 235 0.0 0.0 0.00 2.19 1.82 94 1013.3
20210802224619 78 235 0.0 0.0 0.00 3.24 1.82 94 1013.3
20210802223026 78 223 0.0 0.0 0.00 3.24 1.82 94 1013.5
20210802221522 78 222 0.0 1.0 0.00 3.24 1.82 94 1013.7
20210802220037 78 50 0.0 0.0 0.00 3.24 1.82 95 1013.6
20210802214552 78 50 0.0 0.0 0.00 3.24 1.82 95 1013.8
20210802213027 77 50 0.0 0.0 0.00 3.24 1.82 95 1014.0
20210802211538 77 52 0.0 0.0 0.00 3.24 1.82 95 1013.8
20210802210014 76 52 0.0 0.0 0.00 3.24 1.82 95 1013.5
20210802204531 76 52 0.0 0.0 0.00 3.24 1.82 96 1013.6
20210802203022 76 52 0.0 0.0 0.00 3.24 1.82 95 1013.8
20210802201525 75 52 0.0 0.0 0.00 3.24 1.82 95 1013.9
20210802200019 75 52 0.0 0.0 0.00 3.24 1.82 95 1013.6
20210802194511 75 51 0.0 0.0 0.00 3.24 1.82 95 1013.6
20210802193005 74 174 0.0 0.0 0.00 3.24 1.82 95 1014.1
20210802191514 74 174 0.0 0.0 0.00 3.24 1.82 95 1014.7
20210802190226 74 174 0.0 0.0 0.02 3.24 1.82 95 1015.1
20210802184801 73 174 0.0 0.0 0.10 3.24 1.82 95 1015.3
20210802183215 73 173 0.0 1.0 0.81 3.24 1.82 94 1015.4
20210802181809 73 173 0.0 0.0 1.69 3.24 1.82 94 1015.5
20210802180125 73 222 0.0 1.0 1.79 3.22 1.80 94 1015.5
20210802174720 73 294 0.0 2.0 1.70 3.13 1.71 93 1016.1
20210802173120 74 202 1.0 6.0 0.95 2.38 0.96 92 1016.3
20210802171721 79 33 1.0 5.0 0.10 1.53 0.11 86 1016.4
20210802170158 84 75 0.0 1.0 0.00 1.43 0.01 86 1015.4
20210802164626 86 49 0.0 2.0 0.00 1.43 0.01 82 1015.0
20210802163126 86 344 0.0 2.0 0.00 1.43 0.01 82 1014.6
20210802161652 86 344 0.0 2.0 0.00 1.43 0.01 85 1014.9
20210802160125 86 31 0.0 1.0 0.00 1.43 0.01 85 1015.2
20210802154609 83 252 0.0 1.0 0.00 1.43 0.01 92 1015.2
20210802153133 82 252 0.0 0.0 0.00 1.43 0.01 92 1015.5
20210802151521 82 252 0.0 0.0 0.00 1.43 0.01 91 1015.7
20210802150021 81 252 0.0 1.0 0.00 1.43 0.01 93 1015.7
20210802144532 80 262 0.0 1.0 0.00 1.43 0.01 95 1015.5
20210802143020 79 248 0.0 0.0 0.00 1.43 0.01 95 1015.7
20210802141502 78 248 0.0 0.0 0.00 1.43 0.01 96 1015.8
20210802140133 77 248 0.0 0.0 0.00 1.43 0.01 96 1015.8
20210802134745 77 248 0.0 0.0 0.00 1.43 0.01 96 1016.1
20210802133106 76 248 0.0 0.0 0.00 1.43 0.01 96 1016.1